BAW219V EGLL-KDEN

Flight info

Callsign BAW219V
Flight time N/A
Altitude 34000
Route CPT5J CPT L9 DIDZA N14 OKTAD DCT MEDOG DCT VATRY DCT PIKIL/M084F360 NATA URTAK/N0496F360 DCT LAKES DCT 5630N07000W 5330N08000W/N0493F380 4930N09000W DCT KP84A DCT NYTRO AALLE3
Aircraft B78X/H-SDE1E2E3FGHIJ2J3J4J5M1RWXY/LB1D1

Departure

Time 2026-05-06 12:17
Airport London Heathrow Airport (EGLL)

Arrival

Time N/A
Airport Denver International Airport (KDEN)
Time Latitude Longitude Altitude Speed Heading
2026-05-06 11:32 51.47018 -0.46539 96 ft 0 kts 55°
2026-05-06 12:02 51.47018 -0.46540 96 ft 1 kts 55°
2026-05-06 12:02 51.47010 -0.46557 96 ft 3 kts 55°
2026-05-06 12:02 51.46999 -0.46582 96 ft 3 kts 55°
2026-05-06 12:03 51.46988 -0.46609 96 ft 3 kts 55°
2026-05-06 12:03 51.46976 -0.46636 96 ft 3 kts 55°
2026-05-06 12:03 51.46971 -0.46648 96 ft 0 kts 55°
2026-05-06 12:04 51.46972 -0.46646 96 ft 0 kts 55°
2026-05-06 12:05 51.46973 -0.46643 96 ft 1 kts 57°
2026-05-06 12:05 51.46975 -0.46637 96 ft 1 kts 66°
2026-05-06 12:05 51.46976 -0.46630 96 ft 1 kts 76°
2026-05-06 12:05 51.46976 -0.46623 96 ft 1 kts 90°
2026-05-06 12:06 51.46974 -0.46617 96 ft 1 kts 104°
2026-05-06 12:06 51.46972 -0.46611 96 ft 1 kts 118°
2026-05-06 12:06 51.46969 -0.46606 96 ft 1 kts 131°
2026-05-06 12:06 51.46966 -0.46602 96 ft 1 kts 149°
2026-05-06 12:07 51.46957 -0.46599 96 ft 2 kts 169°
2026-05-06 12:07 51.46937 -0.46591 96 ft 4 kts 161°
2026-05-06 12:07 51.46923 -0.46581 96 ft 0 kts 152°
2026-05-06 12:08 51.46922 -0.46580 96 ft 0 kts 152°
2026-05-06 12:09 51.46918 -0.46576 96 ft 2 kts 150°
2026-05-06 12:09 51.46897 -0.46557 96 ft 5 kts 148°
2026-05-06 12:10 51.46862 -0.46520 96 ft 7 kts 147°
2026-05-06 12:10 51.46861 -0.46519 96 ft 8 kts 147°
2026-05-06 12:11 51.46859 -0.46517 96 ft 8 kts 147°
2026-05-06 12:11 51.46808 -0.46465 96 ft 9 kts 156°
2026-05-06 12:11 51.46755 -0.46494 96 ft 8 kts 243°
2026-05-06 12:11 51.46749 -0.46596 96 ft 11 kts 268°
2026-05-06 12:12 51.46748 -0.46735 96 ft 14 kts 269°
2026-05-06 12:12 51.46747 -0.46900 96 ft 16 kts 269°
2026-05-06 12:12 51.46747 -0.47093 96 ft 18 kts 269°
2026-05-06 12:12 51.46745 -0.47311 96 ft 21 kts 269°
2026-05-06 12:13 51.46746 -0.47553 96 ft 23 kts 272°
2026-05-06 12:13 51.46744 -0.47796 96 ft 17 kts 267°
2026-05-06 12:13 51.46744 -0.47993 96 ft 18 kts 269°
2026-05-06 12:13 51.46743 -0.48039 96 ft 4 kts 270°
2026-05-06 12:14 51.46745 -0.48097 96 ft 7 kts 273°
2026-05-06 12:14 51.46734 -0.48182 96 ft 9 kts 242°
2026-05-06 12:14 51.46674 -0.48218 96 ft 11 kts 177°
2026-05-06 12:14 51.46636 -0.48216 96 ft 0 kts 179°
2026-05-06 12:15 51.46623 -0.48216 96 ft 3 kts 179°
2026-05-06 12:16 51.46591 -0.48215 96 ft 6 kts 180°
2026-05-06 12:16 51.46539 -0.48217 96 ft 9 kts 181°
2026-05-06 12:16 51.46490 -0.48157 96 ft 10 kts 108°
2026-05-06 12:16 51.46483 -0.48021 96 ft 20 kts 91°
2026-05-06 12:17 51.46475 -0.47366 96 ft 100 kts 85°
2026-05-06 12:17 51.46473 -0.45823 96 ft 173 kts 90°
2026-05-06 12:17 51.46497 -0.43612 240 ft 215 kts 86°
2026-05-06 12:17 51.46534 -0.41111 696 ft 225 kts 89°
2026-05-06 12:18 51.46575 -0.38652 1570 ft 221 kts 88°
2026-05-06 12:18 51.46625 -0.36107 2269 ft 238 kts 88°
2026-05-06 12:18 51.46605 -0.33363 3019 ft 254 kts 96°
2026-05-06 12:18 51.45915 -0.30723 3574 ft 264 kts 122°
2026-05-06 12:19 51.44490 -0.28811 4118 ft 273 kts 149°
2026-05-06 12:19 51.42641 -0.28104 4674 ft 280 kts 176°
2026-05-06 12:19 51.40742 -0.28791 5295 ft 281 kts 204°
2026-05-06 12:19 51.39205 -0.30693 5676 ft 279 kts 229°
2026-05-06 12:20 51.38358 -0.33398 5872 ft 270 kts 255°
2026-05-06 12:20 51.38371 -0.36337 5967 ft 266 kts 281°
2026-05-06 12:20 51.38992 -0.39067 6175 ft 262 kts 291°
2026-05-06 12:20 51.39690 -0.41818 6231 ft 267 kts 291°
2026-05-06 12:21 51.40377 -0.44614 6047 ft 269 kts 291°
2026-05-06 12:21 51.41017 -0.47347 6019 ft 262 kts 290°
2026-05-06 12:21 51.41628 -0.50078 6023 ft 261 kts 290°
2026-05-06 12:21 51.42298 -0.52867 6022 ft 267 kts 289°
2026-05-06 12:22 51.42777 -0.55676 5942 ft 262 kts 284°
2026-05-06 12:22 51.43102 -0.58529 5967 ft 260 kts 279°
2026-05-06 12:22 51.43323 -0.61415 5986 ft 262 kts 277°
2026-05-06 12:22 51.43480 -0.64331 5999 ft 264 kts 275°
2026-05-06 12:23 51.43598 -0.67236 6005 ft 265 kts 274°
2026-05-06 12:23 51.43696 -0.70185 6005 ft 265 kts 274°
2026-05-06 12:23 51.43780 -0.73156 5997 ft 265 kts 273°
2026-05-06 12:23 51.43913 -0.76085 5983 ft 264 kts 277°
2026-05-06 12:24 51.44232 -0.78972 6011 ft 263 kts 281°
2026-05-06 12:24 51.44568 -0.81810 6010 ft 263 kts 281°
2026-05-06 12:24 51.44909 -0.84739 6002 ft 264 kts 281°
2026-05-06 12:24 51.45238 -0.87645 5995 ft 264 kts 281°
2026-05-06 12:25 51.45572 -0.90538 5994 ft 264 kts 281°
2026-05-06 12:25 51.45910 -0.93425 6001 ft 263 kts 281°
2026-05-06 12:25 51.46245 -0.96309 6007 ft 264 kts 281°
2026-05-06 12:25 51.46578 -0.99204 6005 ft 264 kts 281°
2026-05-06 12:26 51.46910 -1.02099 5998 ft 264 kts 281°
2026-05-06 12:26 51.47242 -1.05005 5993 ft 264 kts 281°
2026-05-06 12:26 51.47571 -1.07895 5998 ft 264 kts 281°
2026-05-06 12:26 51.47899 -1.10791 6005 ft 264 kts 281°
2026-05-06 12:27 51.48226 -1.13680 6007 ft 264 kts 281°
2026-05-06 12:27 51.48553 -1.16578 6000 ft 264 kts 281°
2026-05-06 12:27 51.48881 -1.19491 5994 ft 264 kts 281°
2026-05-06 12:27 51.49247 -1.22384 5993 ft 269 kts 285°
2026-05-06 12:28 51.49919 -1.25210 6493 ft 271 kts 291°
2026-05-06 12:28 51.50643 -1.27994 7326 ft 269 kts 291°
2026-05-06 12:28 51.51361 -1.30767 8107 ft 269 kts 291°
2026-05-06 12:28 51.52072 -1.33544 8835 ft 269 kts 291°
2026-05-06 12:29 51.52652 -1.35823 9394 ft 271 kts 290°
2026-05-06 12:29 51.53204 -1.38006 9899 ft 272 kts 290°
2026-05-06 12:29 51.53920 -1.40845 10409 ft 281 kts 290°
2026-05-06 12:29 51.54671 -1.43832 10754 ft 295 kts 290°
2026-05-06 12:30 51.55457 -1.46967 11062 ft 310 kts 290°
2026-05-06 12:30 51.56284 -1.50267 11367 ft 326 kts 290°
2026-05-06 12:30 51.57147 -1.53720 11769 ft 338 kts 290°
2026-05-06 12:30 51.58033 -1.57268 12279 ft 347 kts 290°
2026-05-06 12:31 51.58938 -1.60897 12856 ft 353 kts 290°
2026-05-06 12:31 51.59860 -1.64596 13475 ft 358 kts 290°
2026-05-06 12:31 51.60789 -1.68335 14110 ft 362 kts 290°
2026-05-06 12:31 51.61727 -1.72115 14754 ft 366 kts 290°
2026-05-06 12:32 51.62672 -1.75933 15401 ft 369 kts 290°
2026-05-06 12:32 51.63625 -1.79786 16044 ft 372 kts 290°
2026-05-06 12:32 51.64582 -1.83666 16673 ft 375 kts 290°
2026-05-06 12:32 51.65548 -1.87589 17286 ft 378 kts 290°
2026-05-06 12:33 51.66519 -1.91541 17880 ft 382 kts 290°
2026-05-06 12:33 51.67499 -1.95533 18463 ft 386 kts 290°
2026-05-06 12:33 51.68487 -1.99569 19043 ft 389 kts 290°
2026-05-06 12:33 51.69498 -2.03705 19637 ft 393 kts 290°
2026-05-06 12:34 51.70501 -2.07813 20219 ft 396 kts 290°
2026-05-06 12:34 51.71511 -2.11963 20789 ft 399 kts 290°
2026-05-06 12:34 51.72527 -2.16140 21337 ft 403 kts 290°
2026-05-06 12:34 51.73557 -2.20387 21876 ft 406 kts 290°
2026-05-06 12:35 51.74587 -2.24639 22399 ft 410 kts 290°
2026-05-06 12:35 51.75628 -2.28950 22921 ft 413 kts 290°
2026-05-06 12:35 51.76674 -2.33285 23438 ft 417 kts 290°
2026-05-06 12:35 51.77727 -2.37659 23949 ft 420 kts 290°
2026-05-06 12:36 51.78789 -2.42080 24449 ft 423 kts 290°
2026-05-06 12:36 51.79846 -2.46491 24932 ft 426 kts 290°
2026-05-06 12:36 51.80873 -2.50936 25396 ft 429 kts 288°
2026-05-06 12:36 51.81656 -2.55202 25828 ft 432 kts 285°
2026-05-06 12:37 51.82411 -2.59859 26284 ft 435 kts 283°
2026-05-06 12:37 51.83122 -2.64662 26707 ft 438 kts 282°
2026-05-06 12:37 51.83799 -2.69480 27136 ft 441 kts 282°
2026-05-06 12:37 51.84462 -2.74334 27573 ft 444 kts 282°
2026-05-06 12:38 51.85122 -2.79225 28008 ft 447 kts 281°
2026-05-06 12:38 51.85782 -2.84150 28431 ft 450 kts 281°
2026-05-06 12:38 51.86446 -2.89116 28836 ft 453 kts 281°
2026-05-06 12:38 51.87101 -2.94040 29215 ft 456 kts 281°
2026-05-06 12:39 51.87770 -2.99076 29594 ft 459 kts 281°
2026-05-06 12:39 51.88440 -3.04139 29989 ft 461 kts 281°
2026-05-06 12:39 51.89109 -3.09214 30455 ft 462 kts 281°
2026-05-06 12:39 51.89778 -3.14306 30915 ft 463 kts 281°
2026-05-06 12:40 51.90447 -3.19409 31403 ft 462 kts 281°
2026-05-06 12:40 51.91110 -3.24490 31914 ft 461 kts 281°
2026-05-06 12:40 51.91771 -3.29573 32415 ft 460 kts 281°
2026-05-06 12:40 51.92424 -3.34618 32906 ft 458 kts 281°
2026-05-06 12:41 51.93013 -3.39177 33333 ft 457 kts 281°
2026-05-06 12:41 51.93709 -3.44587 33723 ft 458 kts 281°
2026-05-06 12:41 51.94371 -3.49582 33903 ft 461 kts 283°
2026-05-06 12:41 51.95420 -3.54462 33995 ft 456 kts 291°
2026-05-06 12:42 51.98095 -3.63902 34008 ft 465 kts 295°
2026-05-06 12:42 52.01017 -3.73275 33990 ft 465 kts 296°
2026-05-06 12:43 52.03978 -3.82584 34000 ft 464 kts 296°
2026-05-06 12:43 52.06921 -3.91841 34005 ft 464 kts 296°
2026-05-06 12:44 52.09871 -4.01159 33993 ft 464 kts 296°
2026-05-06 12:44 52.12818 -4.10507 34004 ft 464 kts 296°
2026-05-06 12:45 52.15755 -4.19862 34001 ft 464 kts 296°
2026-05-06 12:46 52.20127 -4.33852 34002 ft 464 kts 295°
2026-05-06 12:46 52.23042 -4.43226 34004 ft 464 kts 295°
2026-05-06 12:47 52.25954 -4.52623 33993 ft 464 kts 295°
2026-05-06 12:47 52.28844 -4.61991 34006 ft 464 kts 295°
2026-05-06 12:48 52.31741 -4.71415 33999 ft 464 kts 295°
2026-05-06 12:48 52.34629 -4.80844 33996 ft 464 kts 295°
2026-05-06 12:49 52.37510 -4.90290 34007 ft 464 kts 295°
2026-05-06 12:49 52.40382 -4.99746 33995 ft 464 kts 295°
2026-05-06 12:50 52.43227 -5.09147 34001 ft 464 kts 295°
2026-05-06 12:50 52.46086 -5.18629 34004 ft 464 kts 295°
2026-05-06 12:51 52.48937 -5.28127 33993 ft 464 kts 295°
2026-05-06 12:51 52.51779 -5.37628 34005 ft 464 kts 295°
2026-05-06 12:52 52.54602 -5.47086 33999 ft 464 kts 296°
2026-05-06 12:52 52.57833 -5.55539 34014 ft 466 kts 303°
2026-05-06 12:53 52.61598 -5.64224 33994 ft 466 kts 304°
2026-05-06 12:53 52.65375 -5.72874 33999 ft 465 kts 304°
2026-05-06 12:54 52.69132 -5.81549 34006 ft 466 kts 304°
2026-05-06 12:54 52.72856 -5.90205 33993 ft 465 kts 303°
2026-05-06 12:55 52.76596 -5.98933 34003 ft 465 kts 303°
2026-05-06 12:55 52.80327 -6.07670 34002 ft 466 kts 303°
2026-05-06 12:56 52.84051 -6.16422 33993 ft 465 kts 303°
2026-05-06 12:56 52.87767 -6.25184 34007 ft 465 kts 303°
2026-05-06 12:57 52.91478 -6.33964 33998 ft 465 kts 303°
2026-05-06 12:57 52.95186 -6.42769 33995 ft 465 kts 303°
2026-05-06 12:58 52.98857 -6.51517 34008 ft 465 kts 303°
2026-05-06 12:58 53.02551 -6.60348 33997 ft 465 kts 303°
2026-05-06 12:59 53.06235 -6.69188 33994 ft 465 kts 303°
2026-05-06 12:59 53.09907 -6.78029 34007 ft 465 kts 303°
2026-05-06 13:00 53.13582 -6.86907 33997 ft 465 kts 303°
2026-05-06 13:00 53.17222 -6.95734 33996 ft 465 kts 303°
2026-05-06 13:01 53.20883 -7.04639 34007 ft 465 kts 303°
2026-05-06 13:01 53.24535 -7.13557 33996 ft 465 kts 303°
2026-05-06 13:02 53.27563 -7.20976 33996 ft 465 kts 302°
2026-05-06 13:02 53.31817 -7.31432 34008 ft 465 kts 302°
2026-05-06 13:03 53.35417 -7.40316 33994 ft 465 kts 302°
2026-05-06 13:03 53.39045 -7.49300 33996 ft 465 kts 302°
2026-05-06 13:04 53.42666 -7.58300 34007 ft 465 kts 302°
2026-05-06 13:04 53.46276 -7.67304 33995 ft 465 kts 302°
2026-05-06 13:05 53.49881 -7.76328 34001 ft 465 kts 302°
2026-05-06 13:05 53.53477 -7.85361 34004 ft 465 kts 302°
2026-05-06 13:06 53.57047 -7.94360 33992 ft 465 kts 302°
2026-05-06 13:06 53.60629 -8.03425 34001 ft 465 kts 302°
2026-05-06 13:07 53.64207 -8.12510 34006 ft 465 kts 302°
2026-05-06 13:07 53.67196 -8.20127 33995 ft 465 kts 302°
2026-05-06 13:08 53.70733 -8.29167 33997 ft 465 kts 302°
2026-05-06 13:08 53.74295 -8.38307 34007 ft 465 kts 302°
2026-05-06 13:09 53.77833 -8.47418 33995 ft 465 kts 302°
2026-05-06 13:09 53.81390 -8.56609 34000 ft 465 kts 301°
2026-05-06 13:10 53.84926 -8.65781 34006 ft 465 kts 301°
2026-05-06 13:10 53.88432 -8.74909 33993 ft 465 kts 301°
2026-05-06 13:11 53.91949 -8.84097 34004 ft 465 kts 301°
2026-05-06 13:11 53.95469 -8.93330 34003 ft 465 kts 301°
2026-05-06 13:12 53.98974 -9.02557 33992 ft 465 kts 301°
2026-05-06 13:12 54.02477 -9.11811 34005 ft 465 kts 301°
2026-05-06 13:13 54.05040 -9.18607 34005 ft 465 kts 301°
2026-05-06 13:13 54.08534 -9.27896 33992 ft 465 kts 301°
2026-05-06 13:14 54.12011 -9.37178 34002 ft 465 kts 301°
2026-05-06 13:14 54.15482 -9.46476 34004 ft 465 kts 301°
2026-05-06 13:15 54.18951 -9.55807 33993 ft 465 kts 301°
2026-05-06 13:15 54.22415 -9.65155 34004 ft 465 kts 301°
2026-05-06 13:16 54.25885 -9.74559 34003 ft 465 kts 301°
2026-05-06 13:16 54.29336 -9.83945 33993 ft 465 kts 301°
2026-05-06 13:17 54.32771 -9.93324 34004 ft 465 kts 300°
2026-05-06 13:17 54.36199 -10.02716 34007 ft 465 kts 300°
2026-05-06 13:18 54.39626 -10.12144 33993 ft 465 kts 300°
2026-05-06 13:18 54.43019 -10.21513 34003 ft 465 kts 300°
2026-05-06 13:19 54.46426 -10.30959 34002 ft 465 kts 300°
2026-05-06 13:19 54.49823 -10.40412 33992 ft 465 kts 300°
2026-05-06 13:20 54.53215 -10.49885 34004 ft 465 kts 300°
2026-05-06 13:20 54.56577 -10.59315 34008 ft 465 kts 300°
2026-05-06 13:21 54.59957 -10.68828 33995 ft 465 kts 300°
2026-05-06 13:21 54.63332 -10.78363 33998 ft 465 kts 300°
2026-05-06 13:22 54.66695 -10.87904 34007 ft 465 kts 300°
2026-05-06 13:22 54.70050 -10.97459 33994 ft 465 kts 300°
2026-05-06 13:23 54.73379 -11.06975 34001 ft 465 kts 300°
2026-05-06 13:23 54.76719 -11.16564 34005 ft 465 kts 300°
2026-05-06 13:24 54.80054 -11.26171 33993 ft 465 kts 299°
2026-05-06 13:24 54.83378 -11.35787 34001 ft 465 kts 299°
2026-05-06 13:25 54.86671 -11.45350 34018 ft 465 kts 299°
2026-05-06 13:25 54.89988 -11.55021 34004 ft 465 kts 299°
2026-05-06 13:26 54.93325 -11.64789 33991 ft 465 kts 299°
2026-05-06 13:26 54.96619 -11.74469 33998 ft 465 kts 299°
2026-05-06 13:27 54.99889 -11.84118 34008 ft 465 kts 299°
2026-05-06 13:27 55.03177 -11.93858 33998 ft 465 kts 299°
2026-05-06 13:28 55.05594 -12.01040 33993 ft 465 kts 299°
2026-05-06 13:28 55.08642 -12.10131 33993 ft 465 kts 299°
2026-05-06 13:29 55.11212 -12.17816 34011 ft 465 kts 298°
2026-05-06 13:29 55.14463 -12.27596 34000 ft 465 kts 298°
2026-05-06 13:30 55.17628 -12.37149 33994 ft 465 kts 298°
2026-05-06 13:30 55.19917 -12.44087 34007 ft 465 kts 298°
2026-05-06 13:31 55.21802 -12.49800 34017 ft 465 kts 298°
2026-05-06 13:31 55.24583 -12.58255 34028 ft 465 kts 298°
2026-05-06 13:32 55.26818 -12.65081 34030 ft 465 kts 298°
2026-05-06 13:32 55.29897 -12.74514 34002 ft 465 kts 298°
2026-05-06 13:33 55.32204 -12.81603 33993 ft 465 kts 298°
2026-05-06 13:33 55.34631 -12.89082 33997 ft 465 kts 298°
2026-05-06 13:34 55.37044 -12.96535 34003 ft 465 kts 298°
2026-05-06 13:34 55.39871 -13.05309 34009 ft 465 kts 298°
2026-05-06 13:35 55.42719 -13.14180 34005 ft 465 kts 298°
2026-05-06 13:35 55.45796 -13.23802 33989 ft 465 kts 298°
2026-05-06 13:36 55.48946 -13.33692 33994 ft 465 kts 298°
2026-05-06 13:36 55.51914 -13.43046 34021 ft 465 kts 297°
2026-05-06 13:37 55.55118 -13.53182 34014 ft 465 kts 297°
2026-05-06 13:37 55.58256 -13.63157 33996 ft 465 kts 297°
2026-05-06 13:38 55.60997 -13.71900 33996 ft 464 kts 297°
2026-05-06 13:38 55.64063 -13.81720 34003 ft 465 kts 297°
2026-05-06 13:39 55.67200 -13.91811 33991 ft 465 kts 297°
2026-05-06 13:39 55.70333 -14.01931 34003 ft 465 kts 297°
2026-05-06 13:40 55.73458 -14.12068 34008 ft 465 kts 297°
2026-05-06 13:40 55.76450 -14.21814 33996 ft 465 kts 297°
2026-05-06 13:41 55.79500 -14.31790 33991 ft 464 kts 297°
2026-05-06 13:41 55.82608 -14.41998 34006 ft 464 kts 297°
2026-05-06 13:42 55.85668 -14.52091 34007 ft 464 kts 297°
2026-05-06 13:42 55.88664 -14.62017 33993 ft 464 kts 297°
2026-05-06 13:43 55.91695 -14.72102 33996 ft 464 kts 297°
2026-05-06 13:43 55.94444 -14.81287 34009 ft 464 kts 296°
2026-05-06 13:44 55.97515 -14.91590 34007 ft 464 kts 296°
2026-05-06 13:44 56.00349 -15.01920 33992 ft 464 kts 294°
2026-05-06 13:45 56.03069 -15.12406 34000 ft 464 kts 293°
2026-05-06 13:45 56.07002 -15.28146 33998 ft 464 kts 292°
2026-05-06 13:46 56.09605 -15.38709 33996 ft 464 kts 292°
2026-05-06 13:46 56.12177 -15.49200 34010 ft 464 kts 292°
2026-05-06 13:47 56.14768 -15.59827 34004 ft 464 kts 292°
2026-05-06 13:47 56.17363 -15.70513 33991 ft 464 kts 292°
2026-05-06 13:48 56.19931 -15.81143 33999 ft 464 kts 292°
2026-05-06 13:48 56.22489 -15.91782 34007 ft 464 kts 292°
2026-05-06 13:49 56.25037 -16.02437 33996 ft 464 kts 292°
2026-05-06 13:49 56.27571 -16.13076 33993 ft 463 kts 292°
2026-05-06 13:50 56.30094 -16.23732 34005 ft 463 kts 292°
2026-05-06 13:50 56.32610 -16.34408 34001 ft 463 kts 291°
2026-05-06 13:51 56.35117 -16.45097 33994 ft 463 kts 291°
2026-05-06 13:51 56.37618 -16.55811 34006 ft 463 kts 291°
2026-05-06 13:52 56.40108 -16.66538 33998 ft 463 kts 291°
2026-05-06 13:52 56.42549 -16.77101 33994 ft 463 kts 291°
2026-05-06 13:53 56.45021 -16.87856 34008 ft 463 kts 291°
2026-05-06 13:53 56.47481 -16.98609 33997 ft 463 kts 291°
2026-05-06 13:54 56.49935 -17.09393 33998 ft 463 kts 291°
2026-05-06 13:54 56.52377 -17.20181 34007 ft 463 kts 291°
2026-05-06 13:55 56.54791 -17.30895 33994 ft 463 kts 291°
2026-05-06 13:55 56.57214 -17.41711 34002 ft 463 kts 291°
2026-05-06 13:56 56.59631 -17.52550 34003 ft 463 kts 291°
2026-05-06 13:56 56.62034 -17.63385 33993 ft 463 kts 290°
2026-05-06 13:57 56.64413 -17.74168 34006 ft 463 kts 290°
2026-05-06 13:57 56.66801 -17.85046 33998 ft 463 kts 290°
2026-05-06 13:58 56.69177 -17.95926 33996 ft 463 kts 290°
2026-05-06 13:58 56.71541 -18.06813 34007 ft 463 kts 290°
2026-05-06 13:59 56.73899 -18.17727 33994 ft 463 kts 290°
2026-05-06 13:59 56.76233 -18.28585 34001 ft 463 kts 290°
2026-05-06 14:00 56.78571 -18.39521 34004 ft 463 kts 290°
2026-05-06 14:00 56.80901 -18.50479 33993 ft 463 kts 290°
2026-05-06 14:01 56.83220 -18.61445 34005 ft 463 kts 290°
2026-05-06 14:01 56.85514 -18.72347 33999 ft 463 kts 290°
2026-05-06 14:02 56.87812 -18.83330 33995 ft 463 kts 290°
2026-05-06 14:02 56.90103 -18.94342 34007 ft 463 kts 290°
2026-05-06 14:03 56.92385 -19.05369 33995 ft 463 kts 289°
2026-05-06 14:03 56.94637 -19.16307 34000 ft 463 kts 289°
2026-05-06 14:04 56.96898 -19.27354 34005 ft 463 kts 289°
2026-05-06 14:04 56.99151 -19.38419 33993 ft 463 kts 289°
2026-05-06 14:05 57.01393 -19.49493 34005 ft 463 kts 289°
2026-05-06 14:05 57.03607 -19.60491 34000 ft 463 kts 289°
2026-05-06 14:06 57.05828 -19.71584 33996 ft 463 kts 289°
2026-05-06 14:06 57.08040 -19.82693 34007 ft 463 kts 289°
2026-05-06 14:07 57.10240 -19.93804 33995 ft 463 kts 289°
2026-05-06 14:07 57.12431 -20.04938 34000 ft 462 kts 289°
2026-05-06 14:08 57.14597 -20.16005 34005 ft 463 kts 289°
2026-05-06 14:08 57.16770 -20.27165 33993 ft 462 kts 288°
2026-05-06 14:09 57.18930 -20.38328 34004 ft 462 kts 288°
2026-05-06 14:09 57.20719 -20.47622 34003 ft 463 kts 288°
2026-05-06 14:10 57.23205 -20.60614 33994 ft 462 kts 288°
2026-05-06 14:10 57.25338 -20.71828 34007 ft 463 kts 288°
2026-05-06 14:11 57.27101 -20.81148 33998 ft 463 kts 288°
2026-05-06 14:11 57.29212 -20.92370 33996 ft 462 kts 288°
2026-05-06 14:12 57.31655 -21.05437 34006 ft 463 kts 288°
2026-05-06 14:12 57.33407 -21.14863 33994 ft 462 kts 288°
2026-05-06 14:13 57.35491 -21.26137 34001 ft 462 kts 288°
2026-05-06 14:13 57.37548 -21.37333 34004 ft 463 kts 288°
2026-05-06 14:14 57.39612 -21.48632 33993 ft 462 kts 288°
2026-05-06 14:14 57.41663 -21.59932 34005 ft 462 kts 287°
2026-05-06 14:15 57.43705 -21.71249 33999 ft 463 kts 287°
2026-05-06 14:15 57.45724 -21.82506 33996 ft 462 kts 287°
2026-05-06 14:16 57.47742 -21.93828 34007 ft 462 kts 287°
2026-05-06 14:16 57.49756 -22.05194 33995 ft 462 kts 287°
2026-05-06 14:17 57.51756 -22.16552 34000 ft 462 kts 287°
2026-05-06 14:17 57.53731 -22.27838 34005 ft 462 kts 287°
2026-05-06 14:18 57.55713 -22.39233 33993 ft 462 kts 287°
2026-05-06 14:18 57.57684 -22.50639 34005 ft 462 kts 287°
2026-05-06 14:19 57.59645 -22.62062 34000 ft 462 kts 287°
2026-05-06 14:19 57.61594 -22.73482 33995 ft 462 kts 287°
2026-05-06 14:20 57.63518 -22.84829 34007 ft 462 kts 287°
2026-05-06 14:20 57.65449 -22.96287 33996 ft 462 kts 286°
2026-05-06 14:21 57.67366 -23.07742 34000 ft 462 kts 286°
2026-05-06 14:21 57.69273 -23.19208 34006 ft 462 kts 286°
2026-05-06 14:22 57.71158 -23.30613 33993 ft 462 kts 286°
2026-05-06 14:22 57.73046 -23.42114 34004 ft 462 kts 286°
2026-05-06 14:23 57.74921 -23.53615 34001 ft 462 kts 286°
2026-05-06 14:23 57.76790 -23.65146 33994 ft 462 kts 286°
2026-05-06 14:24 57.78632 -23.76596 34007 ft 462 kts 286°
2026-05-06 14:24 57.80477 -23.88132 33996 ft 462 kts 285°
2026-05-06 14:25 57.82313 -23.99692 33998 ft 462 kts 285°
2026-05-06 14:25 57.84137 -24.11257 34006 ft 462 kts 285°
2026-05-06 14:26 57.85938 -24.22754 33993 ft 462 kts 285°
2026-05-06 14:26 57.87739 -24.34329 34001 ft 462 kts 285°
2026-05-06 14:27 57.89532 -24.45932 34005 ft 462 kts 285°
2026-05-06 14:27 57.91313 -24.57537 33993 ft 462 kts 285°
2026-05-06 14:28 57.93086 -24.69165 34005 ft 462 kts 285°
2026-05-06 14:28 57.94835 -24.80721 34000 ft 462 kts 285°
2026-05-06 14:29 57.96585 -24.92364 33995 ft 462 kts 285°
2026-05-06 14:29 57.98323 -25.04012 34007 ft 462 kts 285°
2026-05-06 14:30 58.00052 -25.15682 33996 ft 462 kts 284°
2026-05-06 14:30 58.01758 -25.27277 33999 ft 462 kts 284°
2026-05-06 14:31 58.03464 -25.38954 34006 ft 462 kts 284°
2026-05-06 14:31 58.05161 -25.50657 33993 ft 462 kts 284°
2026-05-06 14:32 58.06847 -25.62368 34004 ft 462 kts 284°
2026-05-06 14:32 58.08522 -25.74091 34002 ft 462 kts 284°
2026-05-06 14:33 58.10174 -25.85736 33994 ft 462 kts 284°
2026-05-06 14:33 58.11827 -25.97476 34006 ft 462 kts 284°
2026-05-06 14:34 58.13470 -26.09230 33997 ft 462 kts 284°
2026-05-06 14:34 58.15101 -26.20991 33998 ft 462 kts 284°
2026-05-06 14:35 58.16720 -26.32752 34007 ft 462 kts 284°
2026-05-06 14:35 58.18331 -26.44540 33994 ft 462 kts 283°
2026-05-06 14:36 58.19930 -26.56331 34001 ft 462 kts 283°
2026-05-06 14:36 58.21507 -26.68057 34004 ft 462 kts 283°
2026-05-06 14:37 58.23083 -26.79863 33993 ft 462 kts 283°
2026-05-06 14:37 58.24646 -26.91663 34005 ft 462 kts 283°
2026-05-06 14:38 58.26205 -27.03521 34001 ft 462 kts 283°
2026-05-06 14:38 58.27739 -27.15288 33994 ft 462 kts 283°
2026-05-06 14:39 58.29272 -27.27136 34007 ft 462 kts 283°
2026-05-06 14:39 58.30795 -27.39005 33997 ft 462 kts 283°
2026-05-06 14:40 58.32305 -27.50869 33998 ft 462 kts 283°
2026-05-06 14:40 58.33807 -27.62769 34006 ft 462 kts 283°
2026-05-06 14:41 58.35286 -27.74582 33994 ft 462 kts 282°
2026-05-06 14:41 58.36763 -27.86472 34003 ft 462 kts 282°
2026-05-06 14:42 58.38230 -27.98384 34003 ft 462 kts 282°
2026-05-06 14:42 58.39686 -28.10309 33993 ft 462 kts 282°
2026-05-06 14:43 58.41121 -28.22156 34006 ft 462 kts 282°
2026-05-06 14:43 58.42555 -28.34100 33998 ft 462 kts 282°
2026-05-06 14:44 58.43979 -28.46059 33997 ft 462 kts 282°
2026-05-06 14:45 58.46090 -28.63987 34001 ft 462 kts 282°
2026-05-06 14:45 58.47485 -28.75962 33994 ft 462 kts 282°
2026-05-06 14:46 58.48859 -28.87866 34007 ft 462 kts 282°
2026-05-06 14:46 58.50233 -28.99869 33996 ft 462 kts 282°
2026-05-06 14:47 58.51593 -29.11863 33999 ft 462 kts 281°
2026-05-06 14:47 58.52944 -29.23875 34006 ft 462 kts 281°
2026-05-06 14:48 58.54273 -29.35813 33993 ft 462 kts 281°
2026-05-06 14:48 58.55601 -29.47842 34004 ft 462 kts 281°
2026-05-06 14:49 58.56917 -29.59872 34001 ft 462 kts 281°
2026-05-06 14:49 58.58223 -29.71928 33994 ft 462 kts 281°
2026-05-06 14:50 58.59515 -29.83973 34007 ft 462 kts 281°
2026-05-06 14:50 58.60790 -29.95965 33997 ft 462 kts 281°
2026-05-06 14:51 58.62060 -30.08020 33998 ft 462 kts 281°
2026-05-06 14:51 58.63328 -30.20182 34007 ft 462 kts 281°
2026-05-06 14:52 58.64578 -30.32285 33994 ft 462 kts 280°
2026-05-06 14:52 58.65823 -30.44461 33992 ft 461 kts 280°
2026-05-06 14:53 58.67040 -30.56483 34008 ft 462 kts 280°
2026-05-06 14:53 58.68255 -30.68605 34001 ft 462 kts 280°
2026-05-06 14:54 58.69458 -30.80720 33987 ft 462 kts 280°
2026-05-06 14:54 58.70649 -30.92851 34002 ft 462 kts 280°
2026-05-06 14:55 58.71830 -31.04999 33998 ft 462 kts 280°
2026-05-06 14:55 58.72998 -31.17138 33992 ft 462 kts 280°
2026-05-06 14:56 58.74147 -31.29215 34004 ft 462 kts 279°
2026-05-06 14:56 58.75293 -31.41374 33994 ft 462 kts 279°
2026-05-06 14:57 58.76428 -31.53554 33996 ft 462 kts 279°
2026-05-06 14:57 58.77552 -31.65740 34004 ft 462 kts 279°
2026-05-06 14:58 58.78663 -31.77923 33991 ft 462 kts 279°
2026-05-06 14:58 58.79755 -31.90025 34000 ft 462 kts 279°
2026-05-06 14:59 58.80844 -32.02240 33999 ft 462 kts 279°
2026-05-06 14:59 58.81922 -32.14455 33991 ft 462 kts 279°
2026-05-06 15:00 58.82986 -32.26662 34004 ft 462 kts 279°
2026-05-06 15:00 58.84034 -32.38813 33995 ft 462 kts 279°
2026-05-06 15:01 58.85076 -32.51037 33994 ft 462 kts 278°
2026-05-06 15:01 58.86108 -32.63290 34005 ft 462 kts 278°
2026-05-06 15:02 58.87122 -32.75483 33992 ft 462 kts 278°
2026-05-06 15:02 58.88134 -32.87778 33996 ft 462 kts 278°
2026-05-06 15:03 58.89130 -33.00049 34003 ft 462 kts 278°
2026-05-06 15:03 58.90114 -33.12311 33991 ft 462 kts 278°
2026-05-06 15:04 58.91088 -33.24598 34001 ft 462 kts 278°
2026-05-06 15:04 58.92049 -33.36873 33999 ft 462 kts 278°
2026-05-06 15:05 58.92993 -33.49087 33991 ft 462 kts 278°
2026-05-06 15:05 58.93931 -33.61386 34004 ft 462 kts 278°
2026-05-06 15:06 58.94857 -33.73682 33994 ft 462 kts 278°
2026-05-06 15:06 58.95772 -33.85994 33996 ft 462 kts 277°
2026-05-06 15:07 58.96675 -33.98312 34004 ft 462 kts 277°
2026-05-06 15:07 58.97560 -34.10555 33991 ft 461 kts 277°
2026-05-06 15:08 58.98439 -34.22868 34001 ft 462 kts 277°
2026-05-06 15:08 58.99307 -34.35209 33999 ft 461 kts 277°
2026-05-06 15:09 59.00157 -34.47456 33992 ft 461 kts 277°
2026-05-06 15:09 59.01005 -34.59845 34004 ft 461 kts 277°
2026-05-06 15:10 59.01838 -34.72209 33996 ft 461 kts 277°
2026-05-06 15:10 59.02654 -34.84486 33991 ft 461 kts 277°
2026-05-06 15:11 59.03462 -34.96842 34003 ft 461 kts 277°
2026-05-06 15:11 59.04259 -35.09206 33995 ft 461 kts 276°
2026-05-06 15:12 59.05040 -35.21496 33994 ft 461 kts 276°
2026-05-06 15:12 59.05814 -35.33874 34004 ft 461 kts 276°
2026-05-06 15:13 59.06575 -35.46246 33992 ft 461 kts 276°
2026-05-06 15:13 59.07325 -35.58632 33999 ft 461 kts 276°
2026-05-06 15:14 59.08058 -35.70938 34001 ft 461 kts 276°
2026-05-06 15:14 59.08785 -35.83339 33990 ft 461 kts 276°
2026-05-06 15:15 59.09498 -35.95718 34002 ft 461 kts 276°
2026-05-06 15:15 59.10202 -36.08138 33998 ft 461 kts 276°
2026-05-06 15:16 59.10893 -36.20553 33992 ft 461 kts 276°
2026-05-06 15:16 59.11541 -36.32388 34006 ft 461 kts 276°
2026-05-06 15:17 59.12189 -36.44437 34004 ft 461 kts 275°
2026-05-06 15:17 59.12852 -36.56987 33988 ft 461 kts 275°
2026-05-06 15:18 59.13490 -36.69295 33995 ft 461 kts 275°
2026-05-06 15:18 59.14124 -36.81781 34006 ft 461 kts 275°
2026-05-06 15:19 59.14738 -36.94068 33994 ft 461 kts 275°
2026-05-06 15:19 59.15354 -37.06659 33994 ft 461 kts 275°
2026-05-06 15:20 59.15950 -37.19093 34004 ft 461 kts 275°
2026-05-06 15:20 59.16531 -37.31464 33991 ft 461 kts 275°
2026-05-06 15:21 59.17103 -37.43913 33999 ft 461 kts 275°
2026-05-06 15:21 59.17665 -37.56382 34001 ft 461 kts 275°
2026-05-06 15:22 59.18214 -37.68847 33990 ft 461 kts 274°
2026-05-06 15:22 59.18751 -37.81303 34003 ft 461 kts 274°
2026-05-06 15:23 59.19273 -37.93698 33996 ft 461 kts 274°
2026-05-06 15:23 59.19786 -38.06168 33993 ft 461 kts 274°
2026-05-06 15:24 59.20287 -38.18637 34004 ft 461 kts 274°
2026-05-06 15:24 59.20777 -38.31125 33992 ft 461 kts 274°
2026-05-06 15:25 59.21255 -38.43610 33998 ft 461 kts 274°
2026-05-06 15:25 59.21716 -38.55989 34002 ft 461 kts 274°
2026-05-06 15:26 59.22171 -38.68502 33990 ft 461 kts 274°
2026-05-06 15:26 59.22612 -38.80981 34002 ft 461 kts 274°
2026-05-06 15:27 59.23042 -38.93491 33998 ft 461 kts 274°
2026-05-06 15:27 59.23459 -39.05983 33992 ft 461 kts 273°
2026-05-06 15:28 59.23862 -39.18404 34004 ft 461 kts 273°
2026-05-06 15:28 59.24256 -39.30914 33993 ft 461 kts 273°
2026-05-06 15:29 59.24638 -39.43407 33996 ft 461 kts 273°
2026-05-06 15:29 59.25008 -39.55930 34003 ft 461 kts 273°
2026-05-06 15:30 59.25365 -39.68438 33991 ft 461 kts 273°
2026-05-06 15:30 59.25709 -39.80872 34001 ft 461 kts 273°
2026-05-06 15:31 59.26042 -39.93375 33999 ft 461 kts 272°
2026-05-06 15:31 59.26364 -40.05905 33991 ft 461 kts 272°
2026-05-06 15:32 59.26825 -40.24700 34002 ft 461 kts 272°
2026-05-06 15:32 59.27114 -40.37134 33990 ft 461 kts 272°
2026-05-06 15:33 59.27394 -40.49674 34002 ft 461 kts 272°
2026-05-06 15:33 59.27661 -40.62173 33997 ft 461 kts 272°
2026-05-06 15:34 59.27917 -40.74717 33992 ft 461 kts 272°
2026-05-06 15:34 59.28160 -40.87174 34004 ft 461 kts 272°
2026-05-06 15:35 59.28391 -40.99718 33993 ft 461 kts 272°